Regional Weather Roundup
Issued by NWS Bismarck, ND

Home | Current Version | Previous Version | Text Only | Print | Product List | Glossary On
Versions: 1 2 3 4 5 6 7 8 9 10 11 12 13 14 15 16 17 18 19 20 21 22 23 24 25 26 27 28 29 30 31 32 33 34 35 36 37 38 39 40 41 42 43 44 45 46 47 48 49 50
000
ASUS43 KBIS 260410
RWRBIS

NWR BROADCAST TEXT
NATIONAL WEATHER SERVICE BISMARCK ND
1100 PM CDT THU MAY 25 2017

NOTE: "FAIR" INDICATES FEW OR NO CLOUDS BELOW 12,000 FEET WITH NO
SIGNIFICANT WEATHER AND/OR OBSTRUCTIONS TO VISIBILITY.


CITY           SKY/WX    TMP DP  RH WIND       PRES   REMARKS
WILLISTON      CLOUDY    55  45  68 W13       29.60R
MINOT          FAIR      54  44  69 SW7       29.54R
MINOT AFB      FAIR      54  43  66 SW9       29.53R
BISMARCK       FAIR      57  44  62 W6        29.63R
DICKINSON      FAIR      50  42  74 W15       29.65R
GARRISON         N/A     52  43  71 W10       29.58R
HETTINGER ARPT CLOUDY    52  43  71 W13       29.73R
JAMESTOWN      FAIR      57  44  62 W7        29.57R
HAZEN          MOCLDY    54  45  71 SW10      29.63R
LINTON         FAIR      55  48  76 W12       29.66R
MANDAN         FAIR      54  45  71 W15       29.63R
STANLEY        CLOUDY    54  46  76 W12       29.59R
TIOGA          CLOUDY    54  45  71 W17       29.58R
WATFORD CITY   CLOUDY    55  45  67 W15G22    29.61R
$$

CITY           SKY/WX    TMP DP  RH WIND       PRES   REMARKS
GRAND FORKS    FAIR      61  51  70 SE13      29.53R
GRAND FORKS AF MOCLDY    61  51  70 SW7       29.55R
DEVILS LAKE    MOCLDY    58  46  64 W12       29.55R
FARGO          FAIR      63  53  70 SE14      29.56R
CAVALIER       FAIR      63  50  63 S15       29.50R
GRAFTON        MOCLDY    61  50  67 S12       29.54R
GWINNER        MOCLDY    57  54  88 MISG      29.57R
LANGDON        FAIR      54  46  76 W10       29.53R
ROLLA          FAIR      52  46  82 SW9       29.52R
$$

CITY           SKY/WX    TMP DP  RH WIND       PRES   REMARKS
ABERDEEN       MOCLDY    58  46  64 W8        29.60R
MOBRIDGE       FAIR      59  43  55 W14       29.64R
BUFFALO          N/A     52  42  69 W12       29.70R
RAPID CITY     FAIR      51  40  65 N13       29.77R
GLASGOW        CLOUDY    50  38  63 NW16G29   29.72R
SIDNEY         CLOUDY    54  42  64 W15G24    29.66R
WOLF POINT     CLOUDY    54  39  57 W18G30    29.68R
GLENDIVE       CLOUDY    53  39  59 NW22G28   29.72R
MILES CITY     MOCLDY    51  37  58 W9        29.78R
BAKER          FAIR      49  40  71 W20       29.74R
$$

CITY           SKY/WX    TMP DP  RH WIND       PRES   REMARKS
BILLINGS       FAIR      50  31  48 NW12      29.86R
GREAT FALLS    FAIR      46  39  76 NW7       29.89R
REGINA         PTCLDY    50  45  81 W18G24    29.49R
ESTEVAN        PTCLDY    52  43  71 W12       29.53R
$$




USA.gov is the U.S. government's official web portal to all federal, state and local government web resources and services.